Weather in In Amenas

Algeria     28°02′16″N   9°33′25″E
temp.,
°C
wind,
m/s
gust,
m/s
humid.,
%
clouds,
%
prec.,
mm/h
press.,
hPa
HPBL,
m
17 april, sat
sat1701:00+27ssw3313100 0.0 100626
04:00+26sw5614100 0.0 100783
07:00+25sw5816100 0.1 1008217
10:00+30sw61113100 0.0 10081179
13:00+33w111815100 0.0 10083124
16:00+29w121820100 0.0 10071783
19:00+28wnw81321100 0.0 1008466
22:00+26nnw3524100 0.0 101189
18 april, sun
sun1801:00+21n111437100 0.0 1010460
04:00+19nne71148100 0.0 1012486
07:00+18nne81054100 0.0 1014559
10:00+20n6743100 0.0 1016538
13:00+25nnw4424100 0.0 10151229
16:00+27nw55160 0.0 10131765
19:00+23nnw710150 0.0 1015187
22:00+20n813200 0.0 1018286
19 april, mon
mon1901:00+18nne713230 0.0 1018263
04:00+15ne510290 0.0 1019163
07:00+16ene49290 0.0 1020243
10:00+22ene66180 0.0 10201189
13:00+26ene44120 0.0 10181732
16:00+27ene4390 0.0 10152087
19:00+24e44120 0.0 101621
22:00+21ene57130 0.0 101767
20 april, tue
tue2001:00+19ene510170 0.0 1016141
04:00+18ene713203 0.0 1015225
07:00+17e7142462 0.0 1016411
10:00+24ese101218100 0.0 1016808
13:00+29ese9918100 0.0 10121447
16:00+31ese7718100 0.0 10081927
19:00+27e5921100 0.0 100899
22:00+25ese6102762 0.0 1011190
21 april, wed
wed2101:00+22e6123253 0.0 1009182
04:00+21e7133162 0.0 1008200
07:00+21ese713275 0.0 1009298
10:00+29se911153 0.0 1008973
13:00+36s67119 0.0 10052226
16:00+37w5892 0.0 10023976
19:00+31nw68110 0.0 100381
22:00+27n44160 0.0 100643